[[{"header":{"parameterUnit":"m.s-1","parameterCategory":1,"la1":30.2992,"la2":30.254,"lo1":-89.0895,"lo2":-89.0443,"dy":0.0025,"dx":0.0025,"nx":19,"ny":19,"refTime":"2026-05-22T03:00:00:Z","depth":0,"parameterNumber":2,"parameterNumberName":"U-component_of_WINDS"},"data":[0,0,0,-0.7794,-0.7796,-0.7899,-0.7899,-0.8013,-0.8014,0,0,0,0,0,0,0,0,0,0,0,-0.7754,-0.7755,-0.7794,-0.7796,-0.7899,-0.7899,-0.8013,-0.8014,0,0,0,0,0,0,0,0,0,0,0,-0.7754,-0.7755,-0.7755,-0.7797,-0.7899,-0.7899,-0.8013,-0.7941,0,0,0,0,0,0,0,0,0,0,-0.7845,-0.7799,-0.7755,-0.7755,-0.7797,-0.7898,-0.7899,-0.7938,-0.7946,-0.796,0,-0.7971,0,-0.7994,-0.8021,-0.8021,0,0,0,-0.7803,-0.7792,-0.7829,-0.7755,-0.7798,-0.7898,-0.7854,-0.7943,-0.7951,-0.797,-0.7972,-0.7977,-0.7996,-0.8021,-0.8022,-0.8085,-0.8084,0,0,-0.7797,-0.7767,-0.7823,-0.7834,-0.7818,-0.7851,-0.7858,-0.7948,-0.7948,-0.7973,-0.798,-0.7998,-0.8022,-0.8023,-0.8085,-0.8085,0,0,0,-0.7777,-0.7763,-0.7798,-0.7829,-0.7849,-0.7854,-0.7861,-0.7944,-0.7958,-0.7981,-0.7999,-0.8023,-0.8024,-0.8085,-0.8085,-0.8055,0,0,0,-0.7774,-0.7751,-0.7795,-0.7777,-0.7847,-0.7898,-0.7855,-0.7952,-0.7963,-0.7999,-0.8023,-0.8025,-0.8085,-0.8085,-0.8056,-0.8045,0,0,0,-0.7751,-0.7748,-0.776,-0.7775,-0.7819,-0.7897,-0.7917,-0.7955,-0.7974,-0.8021,-0.8025,-0.8085,-0.8085,-0.8056,-0.8046,-0.8053,0,0,0,-0.7717,-0.773,-0.7759,-0.7781,-0.7817,-0.7879,-0.7916,-0.7963,-0.8,-0.8023,-0.8085,-0.8085,-0.8057,-0.8047,-0.8054,-0.8053,-0.805,0,0,-0.7716,-0.7729,-0.7744,-0.7773,-0.7822,-0.7865,-0.791,-0.7971,-0.8002,-0.8055,-0.8057,-0.8055,-0.8046,-0.8053,-0.8045,-0.8042,0,0,0,-0.7734,-0.7744,-0.7764,-0.7799,-0.7848,-0.7889,-0.7948,-0.7972,-0.8019,-0.8024,-0.8061,-0.8057,-0.8062,-0.8063,-0.806,-0.8067,-0.8084,-0.8084,-0.8084,-0.7686,-0.7729,-0.7757,-0.7812,-0.7846,-0.7909,-0.794,-0.7982,-0.8012,-0.8021,-0.8036,-0.8026,-0.8026,-0.8025,-0.8031,-0.804,-0.804,-0.804,-0.804,-0.7688,-0.771,-0.7754,-0.7798,-0.7843,-0.7879,-0.7941,-0.7962,-0.8003,-0.8017,-0.8024,-0.8036,-0.8021,-0.8028,-0.8038,-0.8038,-0.8038,-0.8039,-0.8039,-0.7661,-0.7679,-0.7709,-0.7767,-0.7807,-0.7862,-0.7901,-0.794,-0.7976,-0.7983,-0.8004,-0.8005,-0.801,-0.7991,-0.7991,-0.7991,-0.7991,-0.7991,-0.7991,-0.762,-0.7656,-0.7683,-0.774,-0.7769,-0.7813,-0.7879,-0.7908,-0.7951,-0.7977,-0.7977,-0.8007,-0.8012,-0.8012,-0.7991,-0.7991,-0.7991,-0.7991,-0.7991,-0.7604,-0.7615,-0.7657,-0.7687,-0.7758,-0.7796,-0.7847,-0.7905,-0.7936,-0.7953,-0.7984,-0.7981,-0.7996,-0.7998,-0.7998,-0.7975,-0.7975,-0.7975,-0.7975,-0.758,-0.7593,-0.7647,-0.7692,-0.7741,-0.7793,-0.7841,-0.7894,-0.7949,-0.7971,-0.7981,-0.7985,-0.7985,-0.8,-0.8002,-0.8002,-0.798,-0.798,-0.798,-0.7572,-0.7592,-0.7625,-0.7682,-0.7741,-0.7791,-0.7838,-0.7888,-0.7953,-0.7982,-0.7989,-0.7989,-0.7996,-0.7996,-0.8021,-0.8023,-0.8025,0,0]},{"header":{"parameterUnit":"m.s-1","parameterCategory":1,"la1":30.2992,"la2":30.254,"lo1":-89.0895,"lo2":-89.0443,"dy":0.0025,"dx":0.0025,"nx":19,"ny":19,"refTime":"2026-05-22T03:00:00:Z","depth":0,"parameterNumber":3,"parameterNumberName":"V-component_of_WINDS"},"data":[0,0,0,3.178,3.1786,3.2099,3.2101,3.2467,3.247,0,0,0,0,0,0,0,0,0,0,0,3.1665,3.1667,3.178,3.1787,3.2099,3.2101,3.2466,3.247,0,0,0,0,0,0,0,0,0,0,0,3.1665,3.1667,3.1669,3.1788,3.2099,3.2101,3.2466,3.2242,0,0,0,0,0,0,0,0,0,0,3.1945,3.1816,3.1666,3.1669,3.179,3.2098,3.2101,3.2232,3.2256,3.231,0,3.2351,0,3.2416,3.2492,3.2493,0,0,0,3.1804,3.1796,3.19,3.1669,3.1792,3.2098,3.1963,3.2246,3.2273,3.2342,3.2356,3.2371,3.2422,3.2494,3.2496,3.2746,3.2747,0,0,3.1787,3.171,3.1881,3.1917,3.1864,3.1953,3.1973,3.2263,3.2274,3.2358,3.238,3.2428,3.2496,3.2499,3.2746,3.2746,0,0,0,3.1726,3.1697,3.1795,3.1901,3.1959,3.1962,3.1984,3.2261,3.23,3.2384,3.2432,3.2498,3.2502,3.2746,3.2746,3.269,0,0,0,3.1716,3.1662,3.1787,3.1743,3.1953,3.2114,3.1975,3.2279,3.2315,3.243,3.2498,3.2505,3.2746,3.2746,3.2691,3.2677,0,0,0,3.1653,3.1655,3.1692,3.1738,3.187,3.2111,3.2167,3.2289,3.2343,3.2493,3.2506,3.2745,3.2746,3.2692,3.2679,3.2722,0,0,0,3.1563,3.1638,3.169,3.1792,3.1866,3.2072,3.2166,3.2324,3.2445,3.25,3.2746,3.2746,3.2692,3.2679,3.2722,3.2745,3.2746,0,0,3.1615,3.1641,3.1708,3.1763,3.194,3.2031,3.2202,3.2387,3.2472,3.265,3.2658,3.2691,3.2679,3.2722,3.2781,3.2782,0,0,0,3.1698,3.1745,3.1809,3.192,3.2062,3.2184,3.235,3.2419,3.2574,3.2547,3.272,3.2715,3.2743,3.2758,3.2759,3.2789,3.2749,3.2749,3.2749,3.1662,3.1766,3.1883,3.2024,3.2131,3.2302,3.24,3.2522,3.2596,3.2635,3.2689,3.2712,3.2726,3.2728,3.2758,3.2708,3.2708,3.2708,3.2708,3.1749,3.1832,3.1927,3.2075,3.2184,3.2311,3.2479,3.2527,3.2661,3.268,3.271,3.2723,3.2725,3.2757,3.2705,3.2705,3.2706,3.2706,3.2706,3.1738,3.1796,3.1877,3.205,3.2171,3.2312,3.2437,3.2533,3.2624,3.2653,3.2722,3.2724,3.2738,3.2679,3.2679,3.2679,3.2679,3.2679,3.2679,3.1695,3.1789,3.1881,3.2037,3.2122,3.2246,3.2418,3.2505,3.2626,3.2686,3.2687,3.2758,3.2705,3.269,3.2681,3.2681,3.2681,3.2681,3.268,3.1747,3.1751,3.1893,3.1977,3.217,3.2285,3.2405,3.2573,3.2659,3.2717,3.2782,3.2726,3.2761,3.2762,3.2751,3.2758,3.2758,3.2758,3.2758,3.1739,3.1765,3.1933,3.2062,3.22,3.2322,3.2482,3.2617,3.2757,3.2817,3.283,3.2823,3.2818,3.2856,3.2854,3.2846,3.2877,3.2877,3.2877,3.1778,3.1822,3.1938,3.2074,3.2231,3.2365,3.2519,3.2665,3.2825,3.2884,3.2867,3.2862,3.2851,3.2842,3.2902,3.2897,3.2883,0,0]}]]